Location: Deurze
(52.9838°N, 6.6090°E)
Time: 18:25:57
(UTC+00:00)

Cosmos 2369 Rocket - Pass Details

Date: 11 March 2026
Orbit: 829 x 850 km, 71.0° (Epoch: 20 April)

Event Time Altitude Azimuth Distance (km) Brightness Sun altitude
Rises 20:31:45 0° 219° (SW) 3,404 5.4 -26.8°
Reaches altitude 10° 20:34:13 10° 222° (SW) 2,470 4.7 -27.1°
Maximum altitude 20:39:52 67° 305° (NW) 920 2.5 -27.8°
Drops below altitude 10° 20:45:32 10° 28° (NNE) 2,472 4.7 -28.5°
Sets 20:48:00 0° 32° (NNE) 3,408 5.4 -28.8°
